Weather History for KPTK - March, 2013

Change the Weather History Date:

Monday, March 11, 2013

  Actual Average (KFNT) Record (KFNT)
Temperature  
Mean Temperature 46 °F 32 °F  
Max Temperature 54 °F 41 °F 68 °F (1973)
Min Temperature 37 °F 23 °F -7 °F (1960)
Degree Days  
Heating Degree Days 20 33  
Month to date heating degree days 381  
Since 1 July heating degree days 5469  
Cooling Degree Days 0 0  
Month to date cooling degree days 0  
Year to date cooling degree days 0  
Moisture  
Dew Point 43 °F    
Average Humidity 86    
Maximum Humidity 100    
Minimum Humidity 53    
Precipitation  
Precipitation 0.36 in 0.05 in 0.64 in (1957)
Month to date precipitation 0.61  
Year to date precipitation 3.72  
Snow  
Snow 0.00 in 0.20 in 3.70 in (1950)
Month to date snowfall 3.0  
Since 1 July snowfall 41.6  
Snow Depth -    
Sea Level Pressure  
Sea Level Pressure 29.61 in    
Wind  
Wind Speed 10 mph (South)    
Max Wind Speed 17 mph    
Max Gust Speed 28 mph    
Visibility 7 miles    
Events Rain    
T = Trace of Precipitation, MM = Missing Value Source: NWS Daily Summary

Daily Weather History Graph

Daily Weather History Graph

Search for Another Location

Airport or City:

Trip Planner

Search our weather history database for the weather conditions in past years. The results will help you decide how hot, cold, wet, or windy it might be!

Date:

Astronomy

Mar. 11, 2013 Rise Set
Actual Time 7:52 AM EDT 7:35 PM EDT
Civil Twilight 7:24 AM EDT 8:03 PM EDT
Nautical Twilight 6:51 AM EDT 8:36 PM EDT
Astronomical Twilight 6:18 AM EDT 9:09 PM EDT
Moon 7:24 AM EDT (3/11) 7:48 PM EDT (3/11)
Length of Visible Light 12h 39m
Length of Day
11h 43m
Waning Crescent, 0% of the Moon is Illuminated
Mar 11
Waning Crescent
Mar 11
New
Mar 19
First Quarter
Mar 27
Full
Apr 3
Last Quarter

Hourly Weather History & Observations

Time (EDT) Temp. Windchill Dew Point Humidity Pressure Visibility Wind Dir Wind Speed Gust Speed Precip Events Conditions
12:53 AM 54.0 °F - 37.0 °F 53% 29.81 in 10.0 mi South 8.1 mph - 0.00 in   Overcast
1:53 AM 53.1 °F - 37.9 °F 57% 29.77 in 10.0 mi South 5.8 mph - 0.00 in Rain Light Rain
2:53 AM 54.0 °F - 39.9 °F 59% 29.74 in 10.0 mi South 10.4 mph - 0.00 in   Overcast
3:53 AM 53.1 °F - 41.0 °F 64% 29.73 in 10.0 mi South 8.1 mph - N/A   Overcast
4:53 AM 53.1 °F - 43.0 °F 69% 29.70 in 10.0 mi South 15.0 mph 23.0 mph 0.00 in   Overcast
5:53 AM 53.1 °F - 44.1 °F 71% 29.70 in 10.0 mi South 12.7 mph 27.6 mph N/A   Overcast
6:32 AM 51.8 °F - 44.6 °F 76% 29.69 in 10.0 mi South 13.8 mph - N/A   Overcast
6:53 AM 51.1 °F - 46.0 °F 83% 29.70 in 10.0 mi South 13.8 mph 21.9 mph N/A   Overcast
7:38 AM 48.2 °F - 46.4 °F 93% 29.70 in 6.0 mi South 8.1 mph - 0.01 in Rain Light Rain
7:53 AM 48.9 °F - 46.9 °F 93% 29.70 in 6.0 mi South 12.7 mph - 0.01 in   Overcast
8:06 AM 48.2 °F - 46.4 °F 93% 29.69 in 9.0 mi South 10.4 mph 18.4 mph N/A   Overcast
8:53 AM 48.0 °F - 46.9 °F 96% 29.71 in 4.0 mi South 9.2 mph - 0.00 in Rain Light Rain
9:17 AM 48.2 °F - 46.4 °F 93% 29.69 in 2.5 mi SSE 8.1 mph - 0.01 in Rain Light Rain
9:48 AM 48.2 °F - 46.4 °F 93% 29.69 in 4.0 mi South 5.8 mph - 0.01 in   Overcast
9:53 AM 48.0 °F - 46.9 °F 96% 29.69 in 5.0 mi SSE 5.8 mph - 0.01 in   Overcast
10:04 AM 46.4 °F 43.5 °F 46.4 °F 100% 29.69 in 5.0 mi SSE 5.8 mph - N/A   Overcast
10:40 AM 48.2 °F - 46.4 °F 93% 29.68 in 2.0 mi South 6.9 mph - 0.01 in Rain Rain
10:53 AM 48.0 °F - 46.9 °F 96% 29.68 in 5.0 mi South 5.8 mph - 0.02 in Rain Light Rain
11:45 AM 48.2 °F - 46.4 °F 93% 29.65 in 4.0 mi SSE 11.5 mph - 0.00 in Rain Light Rain
11:50 AM 48.2 °F - 46.4 °F 93% 29.65 in 2.0 mi SSE 11.5 mph - 0.01 in Rain Rain
11:53 AM 48.9 °F - 46.9 °F 93% 29.66 in 2.5 mi SSE 10.4 mph - 0.01 in Rain Light Rain
12:13 PM 48.2 °F - 46.4 °F 93% 29.64 in 10.0 mi South 12.7 mph 19.6 mph 0.03 in   Overcast
12:39 PM 48.2 °F - 46.4 °F 93% 29.62 in 10.0 mi SSE 10.4 mph - 0.03 in   Overcast
12:53 PM 48.9 °F - 46.0 °F 90% 29.62 in 5.0 mi SSE 13.8 mph - 0.03 in Rain Light Rain
1:30 PM 48.2 °F - 44.6 °F 87% 29.59 in 10.0 mi SSE 10.4 mph 19.6 mph 0.01 in Rain Light Rain
1:53 PM 48.9 °F - 44.1 °F 83% 29.57 in 7.0 mi SSE 11.5 mph - 0.01 in Rain Light Rain
2:31 PM 46.4 °F 41.9 °F 44.6 °F 93% 29.54 in 6.0 mi SE 9.2 mph - 0.02 in Rain Light Rain
2:53 PM 46.9 °F - 44.1 °F 90% 29.54 in 4.0 mi SSE 9.2 mph - 0.05 in Rain Rain
3:08 PM 46.4 °F 41.1 °F 44.6 °F 93% 29.52 in 4.0 mi SSE 11.5 mph - 0.05 in Rain Rain
3:18 PM 46.4 °F 41.1 °F 44.6 °F 93% 29.51 in 3.0 mi SSE 11.5 mph - 0.08 in Rain Rain
3:43 PM 46.4 °F 40.7 °F 46.4 °F 100% 29.49 in 6.0 mi SSE 12.7 mph 19.6 mph 0.11 in Rain Light Rain
3:53 PM 48.0 °F - 46.0 °F 93% 29.48 in 8.0 mi SSE 11.5 mph 18.4 mph 0.11 in Rain Light Rain
4:13 PM 48.2 °F - 46.4 °F 93% 29.46 in 4.0 mi SSE 11.5 mph - 0.01 in Rain Light Rain
4:48 PM 48.2 °F - 46.4 °F 93% 29.47 in 6.0 mi SSE 16.1 mph 24.2 mph 0.03 in Rain Light Rain
4:53 PM 48.0 °F - 46.0 °F 93% 29.47 in 5.0 mi South 8.1 mph 24.2 mph 0.04 in Rain Light Rain
5:25 PM 48.2 °F - 44.6 °F 87% 29.48 in 10.0 mi WSW 12.7 mph 21.9 mph 0.04 in Rain Light Rain
5:43 PM 46.4 °F 42.4 °F 44.6 °F 93% 29.49 in 5.0 mi SW 8.1 mph - 0.06 in Rain Rain
5:53 PM 46.9 °F - 45.0 °F 93% 29.50 in 9.0 mi WSW 9.2 mph - 0.06 in Rain Light Rain
6:21 PM 48.2 °F - 44.6 °F 87% 29.51 in 10.0 mi SW 11.5 mph - 0.00 in   Mostly Cloudy
6:48 PM 46.4 °F 41.1 °F 44.6 °F 93% 29.51 in 9.0 mi SW 11.5 mph - 0.01 in Rain Light Rain
6:53 PM 46.4 °F 39.5 °F 42.8 °F 87% 29.51 in 9.0 mi WSW 17.3 mph 21.9 mph N/A Rain Light Rain
7:09 PM 46.4 °F 40.4 °F 41.0 °F 81% 29.52 in 10.0 mi WSW 13.8 mph 23.0 mph 0.00 in   Mostly Cloudy
7:38 PM 44.6 °F 40.2 °F 39.2 °F 81% 29.53 in 10.0 mi SW 8.1 mph - 0.00 in   Mostly Cloudy
7:53 PM 44.1 °F 37.7 °F 39.0 °F 82% 29.55 in 10.0 mi WSW 12.7 mph 25.3 mph 0.00 in Rain Light Rain
8:23 PM 42.8 °F 36.6 °F 37.4 °F 81% 29.56 in 10.0 mi WSW 11.5 mph - 0.01 in   Overcast
8:53 PM 42.1 °F 34.5 °F 36.0 °F 79% 29.57 in 10.0 mi WSW 15.0 mph 20.7 mph 0.01 in   Overcast
9:08 PM 42.8 °F 37.0 °F 35.6 °F 76% 29.57 in 10.0 mi SW 10.4 mph - N/A   Overcast
9:53 PM 39.9 °F 32.9 °F 34.0 °F 79% 29.60 in 10.0 mi WSW 11.5 mph 20.7 mph N/A   Overcast
10:53 PM 37.9 °F 29.2 °F 32.0 °F 79% 29.65 in 10.0 mi SW 15.0 mph 20.7 mph N/A   Overcast
11:53 PM 37.4 °F 28.5 °F 30.2 °F 75% 29.65 in 10.0 mi SW 15.0 mph 23.0 mph N/A   Overcast